METAR AND TAF INFORMATION
METAR FOR SVPA
ADDS - METARS form results

(0524 UTC 30 May 2020)
Data provider http://aviationweather.gov/metar/data/
 
METAR text: SVPA 300502Z AUTO 18004KT NCD 26/25 Q1014
Conditions at: SVPA (PUERTO AYACUCHO , VE) observed 0502 UTC 30 May 2020
Temperature: 26.0°C (79°F)
Dewpoint: 25.0°C (77°F) [RH = 94%]
Pressure (altimeter): 29.94 inches Hg (1014.0 mb)
Winds: from the S (180 degrees) at 5 MPH (4 knots; 2.1 m/s)
Visibility: missing
Ceiling: at least 12,000 feet AGL
Clouds: sky clear below 12,000 feet AGL
Weather: no significant weather observed at this time

 AIRPORT MAP

 RUNWAY INFORMATION
Runway 04 Runway length 8272 ft Runway width 140 ft
Runway elevation 245 ft Runway displaced threshold 0 ft Runway heading 30
Runway 22 Runway length 8272 ft Runway width 140 ft
Runway elevation 244 ft Runway displaced threshold 0 ft Runway heading 210

 AIRPORT FREQUENCIES
Type TWR Name PUERTO AYA Frequency 118.3 MHZ

 AIRPORT NEAR NAVIGATION AIDS
Type VOR Name Puerto Ayacucho Frequency 112800 KHZ
Type NDB Name Puerto Ayacucho Frequency 375 KHZ